| time (UTC) | temp C | wind direction | speed KPH | gust KPH | rain 1hr cm | rain 24hr cm | rain mn cm | humidity % | barometer mb |
| 20260504220505 | 10 | 311 | 14.5 | 30.6 | 0.00 | 0.00 | 0.00 | 42 | 1003.0 |
| 20260504220003 | 10 | 253 | 9.7 | 38.6 | 0.00 | 0.00 | 0.00 | 43 | 1003.0 |
| 20260504215503 | 11 | 343 | 12.9 | 33.8 | 0.00 | 0.00 | 0.00 | 40 | 1003.0 |
| 20260504215003 | 10 | 4 | 9.7 | 27.4 | 0.00 | 0.00 | 0.00 | 42 | 1002.9 |
| 20260504214502 | 10 | 349 | 8.0 | 27.4 | 0.00 | 0.00 | 0.00 | 42 | 1002.8 |
| 20260504214001 | 11 | 25 | 11.3 | 27.4 | 0.00 | 0.00 | 0.00 | 42 | 1002.9 |
| 20260504213601 | 11 | 318 | 9.7 | 32.2 | 0.00 | 0.00 | 0.00 | 44 | 1002.7 |
| 20260504213126 | 11 | 255 | 9.7 | 35.4 | 0.00 | 0.00 | 0.00 | 43 | 1002.7 |
| 20260504212602 | 11 | 341 | 14.5 | 35.4 | 0.00 | 0.00 | 0.00 | 43 | 1002.6 |
| 20260504212059 | 11 | 345 | 12.9 | 32.2 | 0.00 | 0.00 | 0.00 | 44 | 1002.5 |
| 20260504211557 | 11 | 315 | 11.3 | 35.4 | 0.00 | 0.00 | 0.00 | 45 | 1002.5 |
| 20260504211056 | 11 | 335 | 14.5 | 35.4 | 0.00 | 0.00 | 0.00 | 44 | 1002.5 |
| 20260504210556 | 11 | 357 | 16.1 | 29.0 | 0.00 | 0.00 | 0.00 | 44 | 1002.3 |
| 20260504210100 | 11 | 337 | 14.5 | 30.6 | 0.00 | 0.00 | 0.00 | 43 | 1002.3 |
| 20260504205553 | 11 | 309 | 12.9 | 30.6 | 0.00 | 0.00 | 0.00 | 45 | 1002.3 |
| 20260504205054 | 11 | 297 | 11.3 | 29.0 | 0.00 | 0.00 | 0.00 | 42 | 1002.2 |
| 20260504204603 | 12 | 355 | 12.9 | 32.2 | 0.00 | 0.00 | 0.00 | 43 | 1002.1 |
| 20260504204052 | 11 | 292 | 12.9 | 32.2 | 0.00 | 0.00 | 0.00 | 44 | 1002.0 |
| 20260504203554 | 11 | 267 | 17.7 | 32.2 | 0.00 | 0.00 | 0.00 | 43 | 1002.0 |
| 20260504203052 | 11 | 350 | 11.3 | 29.0 | 0.00 | 0.00 | 0.00 | 45 | 1001.9 |
| 20260504202552 | 11 | 345 | 11.3 | 29.0 | 0.00 | 0.00 | 0.00 | 45 | 1002.0 |
| 20260504202052 | 11 | 332 | 8.0 | 29.0 | 0.00 | 0.00 | 0.00 | 45 | 1001.9 |
| 20260504201550 | 11 | 334 | 16.1 | 27.4 | 0.00 | 0.00 | 0.00 | 44 | 1001.9 |
| 20260504201049 | 12 | 343 | 11.3 | 27.4 | 0.00 | 0.00 | 0.00 | 43 | 1001.8 |
| 20260504200551 | 12 | 25 | 11.3 | 25.7 | 0.00 | 0.00 | 0.00 | 43 | 1001.8 |
| 20260504200053 | 12 | 318 | 11.3 | 29.0 | 0.00 | 0.00 | 0.00 | 45 | 1001.7 |
| 20260504195548 | 12 | 292 | 14.5 | 32.2 | 0.00 | 0.00 | 0.00 | 44 | 1001.6 |
| 20260504195048 | 12 | 314 | 16.1 | 33.8 | 0.00 | 0.00 | 0.00 | 42 | 1001.6 |
| 20260504194547 | 12 | 338 | 16.1 | 33.8 | 0.00 | 0.00 | 0.00 | 42 | 1001.5 |
| 20260504194046 | 12 | 20 | 12.9 | 35.4 | 0.00 | 0.00 | 0.00 | 43 | 1001.5 |
| 20260504193548 | 12 | 307 | 14.5 | 37.0 | 0.00 | 0.00 | 0.00 | 44 | 1001.5 |
| 20260504193045 | 12 | 312 | 14.5 | 35.4 | 0.00 | 0.00 | 0.00 | 42 | 1001.3 |
| 20260504192545 | 12 | 345 | 12.9 | 32.2 | 0.00 | 0.00 | 0.00 | 43 | 1001.3 |
| 20260504192044 | 12 | 311 | 12.9 | 32.2 | 0.00 | 0.00 | 0.00 | 43 | 1001.3 |
| 20260504191543 | 12 | 5 | 6.4 | 41.8 | 0.00 | 0.00 | 0.00 | 44 | 1001.1 |
| 20260504191043 | 12 | 300 | 16.1 | 41.8 | 0.00 | 0.00 | 0.00 | 43 | 1000.9 |
| 20260504190542 | 12 | 14 | 12.9 | 33.8 | 0.00 | 0.00 | 0.00 | 43 | 1000.8 |
| 20260504190041 | 13 | 347 | 12.9 | 41.8 | 0.00 | 0.00 | 0.00 | 44 | 1000.9 |
| 20260504185541 | 12 | 333 | 14.5 | 41.8 | 0.00 | 0.00 | 0.00 | 44 | 1000.8 |
| 20260504185041 | 12 | 325 | 16.1 | 38.6 | 0.00 | 0.00 | 0.00 | 43 | 1000.8 |
| 20260504184539 | 12 | 354 | 14.5 | 29.0 | 0.00 | 0.00 | 0.00 | 43 | 1000.6 |
| 20260504184039 | 13 | 4 | 9.7 | 29.0 | 0.00 | 0.00 | 0.00 | 44 | 1000.6 |
| 20260504183539 | 13 | 314 | 11.3 | 40.2 | 0.00 | 0.00 | 0.00 | 46 | 1000.4 |
| 20260504183038 | 12 | 278 | 12.9 | 40.2 | 0.00 | 0.00 | 0.00 | 44 | 1000.5 |
| 20260504182538 | 13 | 314 | 17.7 | 33.8 | 0.00 | 0.00 | 0.00 | 45 | 1000.3 |
| 20260504182037 | 12 | 311 | 14.5 | 33.8 | 0.00 | 0.00 | 0.00 | 46 | 1000.3 |
| 20260504181542 | 13 | 313 | 16.1 | 30.6 | 0.00 | 0.00 | 0.00 | 45 | 1000.3 |
| 20260504181037 | 13 | 297 | 12.9 | 33.8 | 0.00 | 0.00 | 0.00 | 45 | 1000.1 |
| 20260504180540 | 13 | 349 | 12.9 | 33.8 | 0.00 | 0.00 | 0.00 | 45 | 1000.0 |
| 20260504180036 | 13 | 355 | 14.5 | 27.4 | 0.00 | 0.00 | 0.00 | 47 | 1000.0 |
| 20260504175539 | 13 | 295 | 8.0 | 30.6 | 0.00 | 0.00 | 0.00 | 48 | 1000.0 |
| 20260504175038 | 13 | 9 | 11.3 | 30.6 | 0.00 | 0.00 | 0.00 | 46 | 1000.0 |
| 20260504174536 | 13 | 349 | 11.3 | 22.5 | 0.00 | 0.00 | 0.00 | 45 | 999.9 |
| 20260504174036 | 13 | 8 | 8.0 | 24.1 | 0.00 | 0.00 | 0.00 | 47 | 999.9 |
| 20260504173538 | 13 | 355 | 11.3 | 40.2 | 0.00 | 0.00 | 0.00 | 45 | 999.8 |
| 20260504173036 | 13 | 307 | 11.3 | 40.2 | 0.00 | 0.00 | 0.00 | 47 | 999.6 |
| 20260504172535 | 12 | 320 | 14.5 | 35.4 | 0.00 | 0.00 | 0.00 | 46 | 999.5 |
| 20260504172035 | 12 | 278 | 17.7 | 35.4 | 0.00 | 0.00 | 0.00 | 45 | 999.5 |
| 20260504171534 | 12 | 269 | 14.5 | 38.6 | 0.00 | 0.00 | 0.00 | 45 | 999.6 |
| 20260504171035 | 12 | 285 | 17.7 | 38.6 | 0.00 | 0.00 | 0.00 | 44 | 999.7 |
| 20260504170534 | 12 | 347 | 8.0 | 25.7 | 0.00 | 0.00 | 0.00 | 46 | 999.7 |
| 20260504151028 | 13 | 262 | 17.7 | 35.4 | 0.00 | 0.00 | 0.00 | 54 | 998.3 |
| 20260504150531 | 12 | 304 | 14.5 | 41.8 | 0.00 | 0.00 | 0.00 | 53 | 998.3 |
| 20260504141025 | 12 | 278 | 12.9 | 35.4 | 0.00 | 0.00 | 0.00 | 54 | 998.1 |
| 20260504140525 | 12 | 298 | 17.7 | 33.8 | 0.00 | 0.00 | 0.00 | 53 | 998.0 |
| 20260504130520 | 12 | 20 | 11.3 | 27.4 | 0.00 | 0.00 | 0.00 | 52 | 997.8 |
| 20260504110511 | 13 | 285 | 24.1 | 41.8 | 0.00 | 0.00 | 0.00 | 48 | 995.1 |
| 20260504100545 | 13 | 264 | 16.1 | 27.4 | 0.00 | 0.00 | 0.00 | 46 | 995.2 |
| 20260504081541 | 11 | 252 | 11.3 | 19.3 | 0.00 | 0.00 | 0.00 | 45 | 996.7 |
| 20260504081026 | 11 | 257 | 11.3 | 19.3 | 0.00 | 0.00 | 0.00 | 45 | 996.6 |
| 20260504080526 | 11 | 242 | 9.7 | 17.7 | 0.00 | 0.00 | 0.00 | 46 | 996.7 |
| 20260504050553 | 11 | 259 | 9.7 | 16.1 | 0.00 | 0.00 | 0.00 | 49 | 1000.4 |
| 20260504045550 | 11 | 233 | 9.7 | 14.5 | 0.00 | 0.00 | 0.00 | 49 | 1000.7 |
| 20260504045051 | 11 | 246 | 9.7 | 14.5 | 0.00 | 0.00 | 0.00 | 49 | 1000.8 |
| 20260504044549 | 11 | 245 | 8.0 | 12.9 | 0.00 | 0.00 | 0.00 | 49 | 1000.9 |
| 20260504044048 | 11 | 240 | 8.0 | 11.3 | 0.00 | 0.00 | 0.00 | 48 | 1000.9 |
| 20260504043548 | 11 | 240 | 8.0 | 11.3 | 0.00 | 0.00 | 0.00 | 48 | 1001.1 |
| 20260504043054 | 11 | 246 | 6.4 | 9.7 | 0.00 | 0.00 | 0.00 | 48 | 1001.3 |
| 20260504042548 | 12 | 238 | 6.4 | 9.7 | 0.00 | 0.00 | 0.00 | 48 | 1001.5 |
| 20260504042044 | 12 | 248 | 4.8 | 9.7 | 0.00 | 0.00 | 0.00 | 47 | 1001.5 |
| 20260504041544 | 12 | 243 | 4.8 | 6.4 | 0.00 | 0.00 | 0.00 | 47 | 1001.7 |
| 20260504041043 | 12 | 245 | 4.8 | 8.0 | 0.00 | 0.00 | 0.00 | 47 | 1001.7 |
| 20260504040542 | 12 | 256 | 4.8 | 8.0 | 0.00 | 0.00 | 0.00 | 47 | 1001.8 |
| 20260504040041 | 12 | 238 | 4.8 | 8.0 | 0.00 | 0.00 | 0.00 | 47 | 1002.0 |
| 20260504035540 | 12 | 243 | 3.2 | 8.0 | 0.00 | 0.00 | 0.00 | 47 | 1002.1 |
| 20260504035040 | 12 | 252 | 3.2 | 6.4 | 0.00 | 0.00 | 0.00 | 46 | 1002.2 |
| 20260504034539 | 12 | 246 | 3.2 | 6.4 | 0.00 | 0.00 | 0.00 | 45 | 1002.2 |
| 20260504034038 | 13 | 239 | 3.2 | 8.0 | 0.00 | 0.00 | 0.00 | 44 | 1002.4 |
| 20260504033537 | 13 | 267 | 3.2 | 8.0 | 0.00 | 0.00 | 0.00 | 43 | 1002.4 |
| 20260504033036 | 13 | 240 | 3.2 | 6.4 | 0.00 | 0.00 | 0.00 | 43 | 1002.5 |
| 20260504032536 | 13 | 233 | 3.2 | 6.4 | 0.00 | 0.00 | 0.00 | 42 | 1002.7 |
| 20260504032036 | 13 | 246 | 1.6 | 4.8 | 0.00 | 0.00 | 0.00 | 42 | 1002.8 |
| 20260504031535 | 13 | 239 | 1.6 | 4.8 | 0.00 | 0.00 | 0.00 | 41 | 1002.9 |
| 20260504031033 | 13 | 245 | 3.2 | 4.8 | 0.00 | 0.00 | 0.00 | 41 | 1003.0 |
| 20260504030533 | 13 | 259 | 1.6 | 4.8 | 0.00 | 0.00 | 0.00 | 41 | 1003.1 |
| 20260504030033 | 13 | 245 | 3.2 | 4.8 | 0.00 | 0.00 | 0.00 | 41 | 1003.2 |
| 20260504025533 | 13 | 240 | 1.6 | 4.8 | 0.00 | 0.00 | 0.00 | 40 | 1003.1 |
| 20260504025034 | 14 | 252 | 0.0 | 4.8 | 0.00 | 0.00 | 0.00 | 40 | 1003.1 |
| 20260504024535 | 14 | 253 | 1.6 | 4.8 | 0.00 | 0.00 | 0.00 | 40 | 1003.2 |
| 20260504024033 | 14 | 258 | 0.0 | 4.8 | 0.00 | 0.00 | 0.00 | 40 | 1003.2 |
| 20260504023531 | 14 | 275 | 0.0 | 4.8 | 0.00 | 0.00 | 0.00 | 39 | 1003.2 |
| 20260504023034 | 14 | 254 | 0.0 | 3.2 | 0.00 | 0.00 | 0.00 | 39 | 1003.2 |
| 20260504022533 | 15 | 249 | 1.6 | 3.2 | 0.00 | 0.00 | 0.00 | 39 | 1003.3 |
| 20260504022031 | 15 | 266 | 0.0 | 3.2 | 0.00 | 0.00 | 0.00 | 38 | 1003.2 |
| 20260504021530 | 15 | 262 | 0.0 | 1.6 | 0.00 | 0.00 | 0.00 | 38 | 1003.3 |
| 20260504021030 | 15 | 263 | 0.0 | 1.6 | 0.00 | 0.00 | 0.00 | 38 | 1003.3 |
| 20260504020529 | 15 | 261 | 0.0 | 3.2 | 0.00 | 0.00 | 0.00 | 38 | 1003.3 |
| 20260504020028 | 15 | 269 | 0.0 | 3.2 | 0.00 | 0.00 | 0.00 | 38 | 1003.3 |
| 20260504015529 | 15 | 277 | 0.0 | 3.2 | 0.00 | 0.00 | 0.00 | 37 | 1003.4 |
| 20260504015029 | 15 | 257 | 0.0 | 3.2 | 0.00 | 0.00 | 0.00 | 37 | 1003.4 |
| 20260504014537 | 15 | 252 | 1.6 | 3.2 | 0.00 | 0.00 | 0.00 | 37 | 1003.4 |
| 20260504014028 | 16 | 262 | 1.6 | 3.2 | 0.00 | 0.00 | 0.00 | 38 | 1003.5 |
| 20260504013526 | 16 | 278 | 1.6 | 3.2 | 0.00 | 0.00 | 0.00 | 40 | 1003.6 |
| 20260504013035 | 16 | 288 | 1.6 | 4.8 | 0.00 | 0.00 | 0.00 | 38 | 1003.6 |
| 20260504012526 | 16 | 280 | 1.6 | 6.4 | 0.00 | 0.00 | 0.00 | 43 | 1003.7 |
| 20260504012026 | 16 | 283 | 4.8 | 8.0 | 0.00 | 0.00 | 0.00 | 39 | 1003.6 |
| 20260504011526 | 17 | 283 | 4.8 | 11.3 | 0.00 | 0.00 | 0.00 | 38 | 1003.6 |
| 20260504011024 | 17 | 281 | 6.4 | 12.9 | 0.00 | 0.00 | 0.00 | 40 | 1003.7 |
| 20260504010524 | 17 | 290 | 9.7 | 16.1 | 0.00 | 0.00 | 0.00 | 35 | 1003.8 |
| 20260504010023 | 17 | 288 | 9.7 | 19.3 | 0.00 | 0.00 | 0.00 | 34 | 1003.8 |
| 20260504005523 | 18 | 290 | 12.9 | 19.3 | 0.00 | 0.00 | 0.00 | 32 | 1003.8 |
| 20260504005023 | 18 | 285 | 14.5 | 19.3 | 0.00 | 0.00 | 0.00 | 33 | 1003.9 |
| 20260504004527 | 18 | 271 | 12.9 | 22.5 | 0.00 | 0.00 | 0.00 | 33 | 1003.9 |
| 20260504004022 | 18 | 290 | 12.9 | 22.5 | 0.00 | 0.00 | 0.00 | 33 | 1003.9 |
| 20260504003522 | 18 | 284 | 16.1 | 22.5 | 0.00 | 0.00 | 0.00 | 31 | 1003.9 |
| 20260504003021 | 18 | 283 | 11.3 | 19.3 | 0.00 | 0.00 | 0.00 | 30 | 1004.0 |
| 20260504002523 | 18 | 287 | 12.9 | 20.9 | 0.00 | 0.00 | 0.00 | 29 | 1004.0 |
| 20260504002021 | 18 | 248 | 14.5 | 27.4 | 0.00 | 0.00 | 0.00 | 28 | 1004.1 |
| 20260504001521 | 18 | 287 | 12.9 | 25.7 | 0.00 | 0.00 | 0.00 | 30 | 1004.0 |
| 20260504001020 | 19 | 283 | 16.1 | 25.7 | 0.00 | 0.00 | 0.00 | 27 | 1004.0 |
| 20260504000519 | 19 | 328 | 11.3 | 25.7 | 0.00 | 0.00 | 0.00 | 28 | 1004.0 |
| 20260504000020 | 19 | 285 | 9.7 | 22.5 | 0.00 | 0.00 | 0.00 | 28 | 1004.1 |
| 20260503235521 | 19 | 294 | 9.7 | 22.5 | 0.00 | 0.00 | 0.00 | 30 | 1004.2 |
| 20260503235019 | 19 | 313 | 9.7 | 25.7 | 0.00 | 0.00 | 0.00 | 30 | 1004.3 |
| 20260503234521 | 19 | 281 | 16.1 | 27.4 | 0.00 | 0.00 | 0.00 | 30 | 1004.1 |
| 20260503234022 | 19 | 256 | 19.3 | 27.4 | 0.00 | 0.00 | 0.00 | 28 | 1004.2 |
| 20260503233519 | 19 | 274 | 11.3 | 22.5 | 0.00 | 0.00 | 0.00 | 28 | 1004.2 |
| 20260503233021 | 20 | 256 | 9.7 | 22.5 | 0.00 | 0.00 | 0.00 | 28 | 1004.2 |
| 20260503232519 | 20 | 266 | 11.3 | 22.5 | 0.00 | 0.00 | 0.00 | 27 | 1004.3 |
| 20260503232019 | 20 | 281 | 8.0 | 24.1 | 0.00 | 0.00 | 0.00 | 26 | 1004.5 |
| 20260503231519 | 20 | 311 | 8.0 | 24.1 | 0.00 | 0.00 | 0.00 | 26 | 1004.5 |
| 20260503231015 | 20 | 274 | 8.0 | 19.3 | 0.00 | 0.00 | 0.00 | 25 | 1004.4 |
| 20260503230518 | 20 | 351 | 8.0 | 19.3 | 0.00 | 0.00 | 0.00 | 25 | 1004.5 |
| 20260503230017 | 20 | 295 | 9.7 | 24.1 | 0.00 | 0.00 | 0.00 | 26 | 1004.3 |
| 20260503225513 | 20 | 323 | 8.0 | 24.1 | 0.00 | 0.00 | 0.00 | 26 | 1004.5 |
| 20260503225012 | 20 | 277 | 4.8 | 29.0 | 0.00 | 0.00 | 0.00 | 26 | 1004.6 |
| 20260503224511 | 20 | 267 | 12.9 | 29.0 | 0.00 | 0.00 | 0.00 | 26 | 1004.6 |
| 20260503224013 | 20 | 229 | 6.4 | 17.7 | 0.00 | 0.00 | 0.00 | 25 | 1004.8 |
| 20260503223510 | 20 | 315 | 6.4 | 16.1 | 0.00 | 0.00 | 0.00 | 25 | 1004.8 |
| 20260503223009 | 20 | 20 | 6.4 | 25.7 | 0.00 | 0.00 | 0.00 | 24 | 1004.9 |
| 20260503222510 | 20 | 330 | 8.0 | 20.9 | 0.00 | 0.00 | 0.00 | 24 | 1004.9 |
| 20260503222110 | 20 | 312 | 9.7 | 20.9 | 0.00 | 0.00 | 0.00 | 26 | 1004.8 |
| 20260503221509 | 20 | 266 | 8.0 | 24.1 | 0.00 | 0.00 | 0.00 | 27 | 1004.9 |
| 20260503221009 | 20 | 319 | 9.7 | 27.4 | 0.00 | 0.00 | 0.00 | 26 | 1005.0 |